Starlink 31855

operational
NORAD ID: 59838 Int'l Des: 2024-097 Owner: SPXS Country: US Constellation: starlink
LEOCIRCULAR

Über Starlink 31855

Beschreibung wird geladen...

Live-Position

3D-Globus wird geladen...

Nächste Überflüge

Höhenverlauf

Altitude vs Time

uPlot chart will show altitude changes over time

Zweizeiliger Elementsatz

1 59838U 24097D 25259.06661439 .00023355 00000-0 85454-3 0 9990
2 59838 42.9970 180.2547 0001221 271.6864 88.3848 15.27618271 75217
Epoch: 16. Sept. 2025 • Age: 15 hours

Aktueller Status

Höhe 492.5 km
Geschwindigkeit 7.62 km/s
Subsatellitenpunkt -35.91°S, 159.91°E
Startdatum 23. Mai 2024
Alter 1.3 years
Typ internet

Technische Details

Klassifizierung Payload
Masse 730.00 kg
Trockenmasse 700.00 kg
Gesamtmasse 730.00 kg
Länge 0.30 m
Durchmesser 4.10 m
Spannweite 29.00 m
Form Box + pan
Hersteller SPXS
Bus-Typ Starlink V2M
Phasenstatus In Orbit
Besitzer/Staat SPXS/US

Große Konstellationen

Loading constellations...